User: anonymous   Login
Location: Unspecified
(0.0000°N, 0.0000°E)
Time: 00:29:34
(UTC+00:00)
Language:

Orbcomm A7 (FM11) - Orbit

View from above orbital plane
View from above orbital plane
View from above satellite
View from above satellite

Ground track
Ground track

The orbit data is extracted from the following two-line orbital elements,

1 25114U 97084C   21023.58367349  .00000077  00000-0  70366-4 0  9994
2 25114  45.0164  99.4726 0004349  57.4430 302.6838 14.39116193209879
Epoch (UTC): 23 January 2021 14:00:29
Eccentricity: 0.0004349
inclination: 45.0164°
perigee height: 758 km
apogee height: 764 km
right ascension of ascending node: 99.4726°
argument of perigee: 57.4430°
revolutions per day: 14.39116193
mean anomaly at epoch: 302.6838°
orbit number at epoch: 20987

The dashed part of the orbit path shows where the satellite is in the earth's shadow,  

DLR